| time (UTC) | temp C | wind direction | speed KPH | gust KPH | rain 1hr cm | rain 24hr cm | rain mn cm | humidity % | barometer mb |
| 20260906070046 | 23 | 345 | 1.6 | 1.6 | 0.00 | 0.00 | 0.00 | 88 | 1012.1 |
| 20260906065527 | 23 | 345 | 0.0 | 3.2 | 0.00 | 0.00 | 0.00 | 89 | 1012.3 |
| 20260906065029 | 23 | 345 | 0.0 | 3.2 | 0.00 | 0.00 | 0.00 | 88 | 1012.4 |
| 20260906064521 | 23 | 345 | 0.0 | 1.6 | 0.00 | 0.00 | 0.00 | 88 | 1012.3 |
| 20260906064024 | 23 | 345 | 0.0 | 3.2 | 0.00 | 0.00 | 0.00 | 88 | 1012.2 |
| 20260906063526 | 23 | 345 | 1.6 | 4.8 | 0.00 | 0.00 | 0.00 | 88 | 1012.3 |
| 20260906063040 | 23 | 346 | 1.6 | 4.8 | 0.00 | 0.00 | 0.00 | 88 | 1012.3 |
| 20260906062552 | 23 | 346 | 1.6 | 6.4 | 0.00 | 0.00 | 0.00 | 87 | 1012.1 |
| 20260906062031 | 24 | 322 | 0.0 | 1.6 | 0.00 | 0.00 | 0.00 | 89 | 1012.0 |
| 20260906061524 | 24 | 322 | 0.0 | 0.0 | 0.00 | 0.00 | 0.00 | 89 | 1011.9 |
| 20260906061027 | 24 | 322 | 0.0 | 0.0 | 0.00 | 0.00 | 0.00 | 89 | 1011.9 |
| 20260906060529 | 24 | 322 | 0.0 | 0.0 | 0.00 | 0.00 | 0.00 | 89 | 1012.0 |
| 20260906060025 | 24 | 322 | 0.0 | 0.0 | 0.00 | 0.00 | 0.00 | 88 | 1012.0 |
| 20260906055531 | 24 | 322 | 0.0 | 0.0 | 0.00 | 0.00 | 0.00 | 87 | 1012.1 |
| 20260906055033 | 24 | 322 | 0.0 | 0.0 | 0.00 | 0.00 | 0.00 | 85 | 1012.2 |
| 20260906054525 | 25 | 322 | 0.0 | 0.0 | 0.00 | 0.00 | 0.00 | 84 | 1012.0 |
| 20260906054030 | 25 | 322 | 0.0 | 4.8 | 0.00 | 0.00 | 0.00 | 82 | 1012.0 |
| 20260906053532 | 25 | 322 | 1.6 | 8.0 | 0.00 | 0.00 | 0.00 | 82 | 1012.0 |
| 20260906053055 | 26 | 323 | 6.4 | 8.0 | 0.00 | 0.00 | 0.00 | 79 | 1012.0 |
| 20260906052525 | 26 | 216 | 3.2 | 4.8 | 0.00 | 0.00 | 0.00 | 80 | 1011.8 |
| 20260906052027 | 26 | 215 | 1.6 | 3.2 | 0.00 | 0.00 | 0.00 | 81 | 1011.5 |
| 20260906051530 | 26 | 227 | 1.6 | 3.2 | 0.00 | 0.00 | 0.00 | 82 | 1011.4 |
| 20260906051025 | 25 | 290 | 1.6 | 3.2 | 0.00 | 0.00 | 0.00 | 81 | 1011.5 |
| 20260906050519 | 26 | 290 | 1.6 | 3.2 | 0.00 | 0.00 | 0.00 | 82 | 1011.4 |
| 20260906050020 | 26 | 290 | 1.6 | 3.2 | 0.00 | 0.00 | 0.00 | 82 | 1011.6 |
| 20260906045545 | 26 | 290 | 1.6 | 3.2 | 0.00 | 0.00 | 0.00 | 81 | 1011.5 |
| 20260906045015 | 26 | 290 | 1.6 | 3.2 | 0.00 | 0.00 | 0.00 | 81 | 1011.6 |
| 20260906044517 | 26 | 290 | 1.6 | 3.2 | 0.00 | 0.00 | 0.00 | 80 | 1011.7 |
| 20260906044019 | 26 | 290 | 1.6 | 3.2 | 0.00 | 0.00 | 0.00 | 80 | 1011.8 |
| 20260906043531 | 26 | 290 | 0.0 | 3.2 | 0.00 | 0.00 | 0.00 | 80 | 1011.9 |
| 20260906043024 | 26 | 290 | 0.0 | 0.0 | 0.00 | 0.00 | 0.00 | 80 | 1011.9 |
| 20260906042525 | 26 | 290 | 0.0 | 1.6 | 0.00 | 0.00 | 0.00 | 79 | 1011.9 |
| 20260906042016 | 26 | 290 | 0.0 | 3.2 | 0.00 | 0.00 | 0.00 | 79 | 1011.8 |
| 20260906041518 | 26 | 290 | 0.0 | 3.2 | 0.00 | 0.00 | 0.00 | 79 | 1011.8 |
| 20260906041040 | 26 | 290 | 1.6 | 3.2 | 0.00 | 0.00 | 0.00 | 80 | 1011.8 |
| 20260906040541 | 26 | 290 | 1.6 | 3.2 | 0.00 | 0.00 | 0.00 | 80 | 1011.9 |
| 20260906040018 | 26 | 290 | 1.6 | 3.2 | 0.00 | 0.00 | 0.00 | 79 | 1012.0 |
| 20260906035533 | 26 | 290 | 1.6 | 3.2 | 0.00 | 0.00 | 0.00 | 79 | 1012.0 |
| 20260906035016 | 26 | 290 | 1.6 | 3.2 | 0.00 | 0.00 | 0.00 | 79 | 1012.2 |
| 20260906034527 | 26 | 290 | 1.6 | 3.2 | 0.00 | 0.00 | 0.00 | 79 | 1012.0 |
| 20260906034030 | 26 | 290 | 1.6 | 3.2 | 0.00 | 0.00 | 0.00 | 79 | 1012.0 |
| 20260906033553 | 26 | 290 | 1.6 | 3.2 | 0.00 | 0.00 | 0.00 | 78 | 1012.2 |
| 20260906033015 | 26 | 290 | 1.6 | 3.2 | 0.00 | 0.00 | 0.00 | 77 | 1012.0 |
| 20260906032518 | 26 | 290 | 0.0 | 3.2 | 0.00 | 0.00 | 0.00 | 78 | 1012.0 |
| 20260906032025 | 26 | 290 | 0.0 | 3.2 | 0.00 | 0.00 | 0.00 | 78 | 1012.0 |
| 20260906031515 | 26 | 290 | 0.0 | 3.2 | 0.00 | 0.00 | 0.00 | 77 | 1011.8 |
| 20260906031047 | 26 | 290 | 0.0 | 3.2 | 0.00 | 0.00 | 0.00 | 77 | 1012.0 |
| 20260906030531 | 26 | 290 | 1.6 | 1.6 | 0.00 | 0.00 | 0.00 | 77 | 1011.9 |
| 20260906030033 | 26 | 290 | 0.0 | 1.6 | 0.00 | 0.00 | 0.00 | 76 | 1011.9 |
| 20260906025523 | 27 | 290 | 0.0 | 3.2 | 0.00 | 0.00 | 0.00 | 76 | 1011.9 |
| 20260906025026 | 27 | 290 | 1.6 | 6.4 | 0.00 | 0.00 | 0.00 | 76 | 1011.8 |
| 20260906024518 | 27 | 290 | 1.6 | 6.4 | 0.00 | 0.00 | 0.00 | 75 | 1011.8 |
| 20260906024027 | 26 | 291 | 0.0 | 3.2 | 0.00 | 0.00 | 0.00 | 76 | 1011.7 |
| 20260906023530 | 26 | 290 | 0.0 | 1.6 | 0.00 | 0.00 | 0.00 | 75 | 1011.6 |
| 20260906023032 | 26 | 290 | 0.0 | 1.6 | 0.00 | 0.00 | 0.00 | 75 | 1011.4 |
| 20260906022521 | 26 | 290 | 0.0 | 1.6 | 0.00 | 0.00 | 0.00 | 76 | 1011.3 |
| 20260906022022 | 26 | 290 | 0.0 | 1.6 | 0.00 | 0.00 | 0.00 | 76 | 1011.4 |
| 20260906021517 | 26 | 290 | 0.0 | 3.2 | 0.00 | 0.00 | 0.00 | 76 | 1011.4 |
| 20260906021049 | 26 | 291 | 1.6 | 3.2 | 0.00 | 0.00 | 0.00 | 75 | 1011.4 |
| 20260906020549 | 27 | 310 | 0.0 | 1.6 | 0.00 | 0.00 | 0.00 | 75 | 1011.5 |
| 20260906020020 | 26 | 310 | 0.0 | 3.2 | 0.00 | 0.00 | 0.00 | 74 | 1011.5 |
| 20260906015552 | 26 | 310 | 1.6 | 3.2 | 0.00 | 0.00 | 0.00 | 75 | 1011.4 |
| 20260906015033 | 26 | 310 | 0.0 | 0.0 | 0.00 | 0.00 | 0.00 | 74 | 1011.4 |
| 20260906014534 | 26 | 310 | 0.0 | 1.6 | 0.00 | 0.00 | 0.00 | 73 | 1011.3 |
| 20260906014016 | 26 | 310 | 0.0 | 1.6 | 0.00 | 0.00 | 0.00 | 73 | 1011.2 |
| 20260906013528 | 26 | 310 | 0.0 | 1.6 | 0.00 | 0.00 | 0.00 | 73 | 1011.2 |
| 20260906013030 | 26 | 310 | 0.0 | 0.0 | 0.00 | 0.00 | 0.00 | 74 | 1011.1 |
| 20260906012532 | 26 | 310 | 0.0 | 0.0 | 0.00 | 0.00 | 0.00 | 74 | 1011.1 |
| 20260906012021 | 27 | 310 | 0.0 | 0.0 | 0.00 | 0.00 | 0.00 | 73 | 1010.9 |
| 20260906011527 | 27 | 310 | 0.0 | 1.6 | 0.00 | 0.00 | 0.00 | 73 | 1010.8 |
| 20260906011020 | 27 | 310 | 0.0 | 1.6 | 0.00 | 0.00 | 0.00 | 72 | 1010.8 |
| 20260906010521 | 27 | 310 | 1.6 | 1.6 | 0.00 | 0.00 | 0.00 | 72 | 1010.8 |
| 20260906010022 | 27 | 310 | 0.0 | 1.6 | 0.00 | 0.00 | 0.00 | 71 | 1010.6 |
| 20260906005534 | 27 | 310 | 0.0 | 1.6 | 0.00 | 0.00 | 0.00 | 70 | 1010.6 |
| 20260906005016 | 27 | 310 | 0.0 | 1.6 | 0.00 | 0.00 | 0.00 | 70 | 1010.6 |
| 20260906004538 | 27 | 310 | 1.6 | 3.2 | 0.00 | 0.00 | 0.00 | 69 | 1010.6 |
| 20260906004029 | 27 | 310 | 0.0 | 3.2 | 0.00 | 0.00 | 0.00 | 69 | 1010.6 |
| 20260906003535 | 27 | 310 | 0.0 | 0.0 | 0.00 | 0.00 | 0.00 | 68 | 1010.5 |
| 20260906003021 | 27 | 310 | 0.0 | 0.0 | 0.00 | 0.00 | 0.00 | 67 | 1010.5 |
| 20260906002517 | 28 | 310 | 0.0 | 1.6 | 0.00 | 0.00 | 0.00 | 67 | 1010.6 |
| 20260906002019 | 28 | 310 | 0.0 | 3.2 | 0.00 | 0.00 | 0.00 | 66 | 1010.6 |
| 20260906001521 | 28 | 310 | 1.6 | 3.2 | 0.00 | 0.00 | 0.00 | 66 | 1010.6 |
| 20260906001032 | 28 | 310 | 0.0 | 3.2 | 0.00 | 0.00 | 0.00 | 67 | 1010.6 |
| 20260906000536 | 28 | 310 | 1.6 | 3.2 | 0.00 | 0.00 | 0.00 | 67 | 1010.7 |
| 20260906000016 | 28 | 310 | 1.6 | 3.2 | 0.00 | 0.00 | 0.00 | 67 | 1010.8 |
| 20260905235517 | 28 | 310 | 1.6 | 3.2 | 0.00 | 0.00 | 0.00 | 67 | 1010.8 |
| 20260905235030 | 29 | 310 | 0.0 | 9.7 | 0.00 | 0.00 | 0.00 | 65 | 1010.8 |
| 20260905234541 | 29 | 310 | 3.2 | 9.7 | 0.00 | 0.00 | 0.00 | 64 | 1010.9 |
| 20260905234041 | 30 | 269 | 3.2 | 12.9 | 0.00 | 0.00 | 0.00 | 63 | 1011.1 |
| 20260905233527 | 30 | 227 | 3.2 | 12.9 | 0.00 | 0.00 | 0.00 | 62 | 1011.2 |
| 20260905233020 | 31 | 287 | 3.2 | 6.4 | 0.00 | 0.00 | 0.00 | 65 | 1011.2 |
| 20260905232527 | 31 | 251 | 1.6 | 1.6 | 0.00 | 0.00 | 0.00 | 63 | 1010.8 |
| 20260905232029 | 31 | 251 | 0.0 | 1.6 | 0.00 | 0.00 | 0.00 | 64 | 1010.8 |
| 20260905231541 | 31 | 251 | 0.0 | 3.2 | 0.00 | 0.00 | 0.00 | 63 | 1010.9 |
| 20260905231022 | 31 | 251 | 1.6 | 3.2 | 0.00 | 0.00 | 0.00 | 63 | 1010.7 |
| 20260905230524 | 31 | 251 | 1.6 | 3.2 | 0.00 | 0.00 | 0.00 | 62 | 1010.7 |
| 20260905230026 | 31 | 251 | 0.0 | 4.8 | 0.00 | 0.00 | 0.00 | 61 | 1010.7 |
| 20260905225528 | 31 | 251 | 1.6 | 4.8 | 0.00 | 0.00 | 0.00 | 60 | 1010.5 |
| 20260905225021 | 31 | 251 | 0.0 | 1.6 | 0.00 | 0.00 | 0.00 | 59 | 1010.3 |
| 20260905224522 | 31 | 251 | 0.0 | 3.2 | 0.00 | 0.00 | 0.00 | 60 | 1010.4 |
| 20260905224049 | 31 | 251 | 1.6 | 3.2 | 0.00 | 0.00 | 0.00 | 60 | 1010.4 |
| 20260905223520 | 31 | 251 | 0.0 | 1.6 | 0.00 | 0.00 | 0.00 | 60 | 1010.4 |
| 20260905223022 | 31 | 251 | 0.0 | 4.8 | 0.00 | 0.00 | 0.00 | 61 | 1010.5 |
| 20260905222528 | 31 | 251 | 1.6 | 4.8 | 0.00 | 0.00 | 0.00 | 60 | 1010.4 |
| 20260905222020 | 31 | 232 | 1.6 | 4.8 | 0.00 | 0.00 | 0.00 | 60 | 1010.3 |
| 20260905221522 | 31 | 220 | 1.6 | 8.0 | 0.00 | 0.00 | 0.00 | 57 | 1010.4 |
| 20260905221023 | 31 | 222 | 3.2 | 8.0 | 0.00 | 0.00 | 0.00 | 55 | 1010.5 |
| 20260905220517 | 32 | 149 | 1.6 | 9.7 | 0.00 | 0.00 | 0.00 | 53 | 1010.7 |
| 20260905220020 | 33 | 194 | 1.6 | 9.7 | 0.00 | 0.00 | 0.00 | 52 | 1010.7 |
| 20260905215522 | 34 | 194 | 3.2 | 9.7 | 0.00 | 0.00 | 0.00 | 50 | 1010.7 |
| 20260905215034 | 35 | 240 | 4.8 | 11.3 | 0.00 | 0.00 | 0.00 | 50 | 1010.6 |
| 20260905214536 | 35 | 215 | 3.2 | 8.0 | 0.00 | 0.00 | 0.00 | 50 | 1010.6 |
| 20260905214017 | 35 | 217 | 3.2 | 8.0 | 0.00 | 0.00 | 0.00 | 50 | 1010.6 |
| 20260905213550 | 35 | 165 | 3.2 | 6.4 | 0.00 | 0.00 | 0.00 | 49 | 1010.5 |
| 20260905213015 | 35 | 216 | 1.6 | 4.8 | 0.00 | 0.00 | 0.00 | 52 | 1010.5 |
| 20260905212517 | 35 | 215 | 1.6 | 4.8 | 0.00 | 0.00 | 0.00 | 50 | 1010.5 |
| 20260905212049 | 35 | 215 | 1.6 | 4.8 | 0.00 | 0.00 | 0.00 | 51 | 1010.5 |
| 20260905211531 | 35 | 215 | 3.2 | 6.4 | 0.00 | 0.00 | 0.00 | 51 | 1010.5 |
| 20260905211033 | 35 | 54 | 3.2 | 6.4 | 0.00 | 0.00 | 0.00 | 53 | 1010.4 |
| 20260905210546 | 35 | 81 | 1.6 | 8.0 | 0.00 | 0.00 | 0.00 | 52 | 1010.4 |
| 20260905210027 | 35 | 216 | 3.2 | 8.0 | 0.00 | 0.00 | 0.00 | 51 | 1010.4 |
| 20260905205529 | 35 | 236 | 1.6 | 4.8 | 0.00 | 0.00 | 0.00 | 54 | 1010.5 |
| 20260905205019 | 35 | 236 | 1.6 | 8.0 | 0.00 | 0.00 | 0.00 | 52 | 1010.6 |
| 20260905204522 | 35 | 214 | 3.2 | 8.0 | 0.00 | 0.00 | 0.00 | 53 | 1010.7 |
| 20260905204024 | 35 | 165 | 3.2 | 4.8 | 0.00 | 0.00 | 0.00 | 51 | 1010.7 |
| 20260905203545 | 35 | 163 | 1.6 | 9.7 | 0.00 | 0.00 | 0.00 | 52 | 1010.8 |
| 20260905203016 | 35 | 188 | 4.8 | 9.7 | 0.00 | 0.00 | 0.00 | 52 | 1010.9 |
| 20260905202521 | 35 | 229 | 1.6 | 9.7 | 0.00 | 0.00 | 0.00 | 53 | 1010.9 |
| 20260905202022 | 35 | 241 | 3.2 | 4.8 | 0.00 | 0.00 | 0.00 | 51 | 1010.9 |
| 20260905201536 | 35 | 221 | 3.2 | 6.4 | 0.00 | 0.00 | 0.00 | 51 | 1011.1 |
| 20260905201017 | 35 | 267 | 4.8 | 6.4 | 0.00 | 0.00 | 0.00 | 51 | 1011.1 |
| 20260905200520 | 35 | 284 | 1.6 | 4.8 | 0.00 | 0.00 | 0.00 | 50 | 1011.2 |
| 20260905200021 | 35 | 284 | 3.2 | 4.8 | 0.00 | 0.00 | 0.00 | 50 | 1011.3 |
| 20260905195523 | 35 | 294 | 1.6 | 6.4 | 0.00 | 0.00 | 0.00 | 51 | 1011.3 |
| 20260905195015 | 35 | 184 | 3.2 | 6.4 | 0.00 | 0.00 | 0.00 | 50 | 1011.4 |
| 20260905194518 | 35 | 309 | 3.2 | 6.4 | 0.00 | 0.00 | 0.00 | 51 | 1011.6 |
| 20260905194020 | 36 | 246 | 3.2 | 6.4 | 0.00 | 0.00 | 0.00 | 51 | 1011.6 |
| 20260905193532 | 36 | 238 | 3.2 | 6.4 | 0.00 | 0.00 | 0.00 | 51 | 1011.7 |
| 20260905193018 | 35 | 146 | 3.2 | 6.4 | 0.00 | 0.00 | 0.00 | 53 | 1011.6 |
| 20260905192519 | 36 | 267 | 3.2 | 9.7 | 0.00 | 0.00 | 0.00 | 50 | 1011.7 |
| 20260905192023 | 35 | 142 | 3.2 | 9.7 | 0.00 | 0.00 | 0.00 | 52 | 1011.7 |
| 20260905191524 | 35 | 287 | 3.2 | 6.4 | 0.00 | 0.00 | 0.00 | 51 | 1011.8 |
| 20260905191025 | 36 | 111 | 1.6 | 6.4 | 0.00 | 0.00 | 0.00 | 53 | 1011.9 |
| 20260905190539 | 35 | 350 | 3.2 | 6.4 | 0.00 | 0.00 | 0.00 | 55 | 1012.0 |
| 20260905190017 | 35 | 261 | 3.2 | 8.0 | 0.00 | 0.00 | 0.00 | 52 | 1012.1 |
| 20260905185529 | 35 | 32 | 1.6 | 6.4 | 0.00 | 0.00 | 0.00 | 53 | 1012.2 |
| 20260905185031 | 35 | 5 | 3.2 | 8.0 | 0.00 | 0.00 | 0.00 | 52 | 1012.3 |
| 20260905184532 | 35 | 304 | 3.2 | 8.0 | 0.00 | 0.00 | 0.00 | 53 | 1012.4 |
| 20260905184024 | 35 | 240 | 4.8 | 8.0 | 0.00 | 0.00 | 0.00 | 52 | 1012.4 |
| 20260905183526 | 35 | 119 | 1.6 | 8.0 | 0.00 | 0.00 | 0.00 | 54 | 1012.4 |
| 20260905183022 | 35 | 288 | 4.8 | 8.0 | 0.00 | 0.00 | 0.00 | 54 | 1012.4 |
| 20260905182523 | 35 | 204 | 4.8 | 8.0 | 0.00 | 0.00 | 0.00 | 53 | 1012.5 |
| 20260905182045 | 35 | 265 | 3.2 | 6.4 | 0.00 | 0.00 | 0.00 | 53 | 1012.6 |
| 20260905181516 | 35 | 313 | 1.6 | 6.4 | 0.00 | 0.00 | 0.00 | 54 | 1012.7 |
| 20260905181048 | 35 | 250 | 3.2 | 9.7 | 0.00 | 0.00 | 0.00 | 53 | 1012.7 |
| 20260905180529 | 35 | 203 | 1.6 | 9.7 | 0.00 | 0.00 | 0.00 | 54 | 1012.8 |
| 20260905180030 | 35 | 85 | 1.6 | 4.8 | 0.00 | 0.00 | 0.00 | 53 | 1012.9 |
| 20260905175522 | 35 | 324 | 3.2 | 6.4 | 0.00 | 0.00 | 0.00 | 53 | 1012.9 |
| 20260905175025 | 35 | 84 | 1.6 | 6.4 | 0.00 | 0.00 | 0.00 | 55 | 1012.9 |
| 20260905174527 | 35 | 248 | 3.2 | 8.0 | 0.00 | 0.00 | 0.00 | 55 | 1012.9 |
| 20260905174039 | 35 | 232 | 1.6 | 8.0 | 0.00 | 0.00 | 0.00 | 56 | 1013.0 |
| 20260905173519 | 35 | 36 | 1.6 | 4.8 | 0.00 | 0.00 | 0.00 | 56 | 1013.0 |
| 20260905173026 | 34 | 63 | 3.2 | 8.0 | 0.00 | 0.00 | 0.00 | 58 | 1013.0 |
| 20260905172517 | 34 | 91 | 3.2 | 8.0 | 0.00 | 0.00 | 0.00 | 56 | 1013.1 |
| 20260905172020 | 34 | 312 | 3.2 | 9.7 | 0.00 | 0.00 | 0.00 | 56 | 1013.2 |
| 20260905171522 | 34 | 57 | 3.2 | 6.4 | 0.00 | 0.00 | 0.00 | 59 | 1013.2 |
| 20260905171034 | 33 | 65 | 1.6 | 4.8 | 0.00 | 0.00 | 0.00 | 58 | 1013.3 |
| 20260905170515 | 33 | 80 | 1.6 | 6.4 | 0.00 | 0.00 | 0.00 | 58 | 1013.3 |
| 20260905170037 | 33 | 298 | 3.2 | 4.8 | 0.00 | 0.00 | 0.00 | 60 | 1013.3 |
| 20260905165527 | 33 | 264 | 3.2 | 4.8 | 0.00 | 0.00 | 0.00 | 60 | 1013.4 |
| 20260905165029 | 33 | 236 | 3.2 | 6.4 | 0.00 | 0.00 | 0.00 | 61 | 1013.4 |
| 20260905164532 | 33 | 56 | 1.6 | 6.4 | 0.00 | 0.00 | 0.00 | 60 | 1013.5 |
| 20260905164053 | 33 | 334 | 3.2 | 4.8 | 0.00 | 0.00 | 0.00 | 60 | 1013.6 |
| 20260905163534 | 33 | 105 | 1.6 | 8.0 | 0.00 | 0.00 | 0.00 | 61 | 1013.8 |
| 20260905163037 | 32 | 296 | 1.6 | 4.8 | 0.00 | 0.00 | 0.00 | 62 | 1013.8 |
| 20260905162532 | 32 | 65 | 1.6 | 4.8 | 0.00 | 0.00 | 0.00 | 62 | 1013.8 |
| 20260905162033 | 32 | 300 | 3.2 | 4.8 | 0.00 | 0.00 | 0.00 | 63 | 1013.9 |
| 20260905161535 | 32 | 273 | 3.2 | 4.8 | 0.00 | 0.00 | 0.00 | 64 | 1013.9 |
| 20260905161026 | 32 | 189 | 1.6 | 4.8 | 0.00 | 0.00 | 0.00 | 63 | 1014.0 |
| 20260905160528 | 32 | 341 | 3.2 | 4.8 | 0.00 | 0.00 | 0.00 | 66 | 1014.0 |
| 20260905160030 | 31 | 307 | 3.2 | 6.4 | 0.00 | 0.00 | 0.00 | 65 | 1014.0 |
| 20260905155522 | 31 | 307 | 3.2 | 6.4 | 0.00 | 0.00 | 0.00 | 65 | 1014.1 |
| 20260905155035 | 31 | 233 | 1.6 | 4.8 | 0.00 | 0.00 | 0.00 | 65 | 1014.1 |
| 20260905154527 | 31 | 274 | 1.6 | 4.8 | 0.00 | 0.00 | 0.00 | 65 | 1014.1 |
| 20260905154029 | 31 | 273 | 1.6 | 4.8 | 0.00 | 0.00 | 0.00 | 66 | 1014.1 |
| 20260905153516 | 31 | 288 | 1.6 | 4.8 | 0.00 | 0.00 | 0.00 | 68 | 1014.1 |
| 20260905153027 | 30 | 288 | 3.2 | 4.8 | 0.00 | 0.00 | 0.00 | 69 | 1014.0 |
| 20260905152530 | 30 | 304 | 3.2 | 4.8 | 0.00 | 0.00 | 0.00 | 68 | 1014.1 |
| 20260905152055 | 30 | 27 | 1.6 | 4.8 | 0.00 | 0.00 | 0.00 | 69 | 1014.1 |
| 20260905151525 | 30 | 28 | 1.6 | 4.8 | 0.00 | 0.00 | 0.00 | 65 | 1014.1 |
| 20260905151027 | 30 | 27 | 1.6 | 3.2 | 0.00 | 0.00 | 0.00 | 68 | 1014.1 |
| 20260905150529 | 29 | 27 | 1.6 | 3.2 | 0.00 | 0.00 | 0.00 | 70 | 1014.0 |
| 20260905150030 | 29 | 27 | 1.6 | 3.2 | 0.00 | 0.00 | 0.00 | 71 | 1014.0 |
| 20260905145521 | 28 | 28 | 1.6 | 3.2 | 0.00 | 0.00 | 0.00 | 72 | 1014.0 |
| 20260905145024 | 28 | 28 | 1.6 | 3.2 | 0.00 | 0.00 | 0.00 | 70 | 1014.0 |
| 20260905144534 | 28 | 23 | 1.6 | 3.2 | 0.00 | 0.00 | 0.00 | 72 | 1014.0 |
| 20260905144025 | 28 | 23 | 1.6 | 3.2 | 0.00 | 0.00 | 0.00 | 73 | 1014.0 |
| 20260905143521 | 28 | 23 | 1.6 | 3.2 | 0.00 | 0.00 | 0.00 | 73 | 1014.1 |
| 20260905143023 | 28 | 23 | 1.6 | 4.8 | 0.00 | 0.00 | 0.00 | 72 | 1014.1 |
| 20260905142555 | 28 | 23 | 1.6 | 4.8 | 0.00 | 0.00 | 0.00 | 74 | 1014.1 |
| 20260905142026 | 28 | 24 | 0.0 | 3.2 | 0.00 | 0.00 | 0.00 | 74 | 1014.2 |
| 20260905141530 | 27 | 24 | 1.6 | 3.2 | 0.00 | 0.00 | 0.00 | 74 | 1014.2 |
| 20260905141032 | 27 | 24 | 0.0 | 3.2 | 0.00 | 0.00 | 0.00 | 76 | 1014.2 |
| 20260905140524 | 27 | 25 | 1.6 | 3.2 | 0.00 | 0.00 | 0.00 | 80 | 1014.1 |
| 20260905140026 | 27 | 25 | 0.0 | 1.6 | 0.00 | 0.00 | 0.00 | 78 | 1014.2 |
| 20260905135528 | 27 | 25 | 1.6 | 3.2 | 0.00 | 0.00 | 0.00 | 80 | 1014.3 |
| 20260905135050 | 27 | 25 | 0.0 | 3.2 | 0.00 | 0.00 | 0.00 | 84 | 1014.3 |
| 20260905134540 | 26 | 25 | 1.6 | 3.2 | 0.00 | 0.00 | 0.00 | 84 | 1014.4 |
| 20260905134020 | 26 | 25 | 0.0 | 3.2 | 0.00 | 0.00 | 0.00 | 85 | 1014.3 |
| 20260905133542 | 26 | 25 | 0.0 | 0.0 | 0.00 | 0.00 | 0.00 | 86 | 1014.3 |
| 20260905133025 | 26 | 25 | 0.0 | 0.0 | 0.00 | 0.00 | 0.00 | 86 | 1014.3 |
| 20260905132518 | 26 | 25 | 0.0 | 0.0 | 0.00 | 0.00 | 0.00 | 87 | 1014.4 |
| 20260905132050 | 25 | 25 | 0.0 | 0.0 | 0.00 | 0.00 | 0.00 | 88 | 1014.4 |
| 20260905131531 | 25 | 25 | 0.0 | 0.0 | 0.00 | 0.00 | 0.00 | 87 | 1014.4 |
| 20260905131033 | 25 | 25 | 0.0 | 0.0 | 0.00 | 0.00 | 0.00 | 87 | 1014.4 |
| 20260905130525 | 25 | 25 | 0.0 | 0.0 | 0.00 | 0.00 | 0.00 | 88 | 1014.4 |
| 20260905130027 | 25 | 25 | 0.0 | 0.0 | 0.00 | 0.00 | 0.00 | 88 | 1014.4 |
| 20260905125529 | 25 | 25 | 0.0 | 0.0 | 0.00 | 0.00 | 0.00 | 88 | 1014.4 |
| 20260905125021 | 25 | 25 | 0.0 | 0.0 | 0.00 | 0.00 | 0.00 | 88 | 1014.4 |
| 20260905124523 | 25 | 25 | 0.0 | 0.0 | 0.00 | 0.00 | 0.00 | 88 | 1014.4 |
| 20260905124025 | 25 | 25 | 0.0 | 0.0 | 0.00 | 0.00 | 0.00 | 88 | 1014.5 |
| 20260905123521 | 25 | 25 | 0.0 | 0.0 | 0.00 | 0.00 | 0.00 | 88 | 1014.5 |
| 20260905123023 | 25 | 25 | 0.0 | 0.0 | 0.00 | 0.00 | 0.00 | 88 | 1014.4 |
| 20260905122515 | 24 | 25 | 0.0 | 0.0 | 0.00 | 0.00 | 0.00 | 88 | 1014.4 |
| 20260905122028 | 24 | 25 | 0.0 | 1.6 | 0.00 | 0.00 | 0.00 | 87 | 1014.3 |
| 20260905121530 | 25 | 25 | 0.0 | 1.6 | 0.00 | 0.00 | 0.00 | 87 | 1014.2 |
| 20260905121032 | 25 | 25 | 0.0 | 1.6 | 0.00 | 0.00 | 0.00 | 87 | 1014.1 |
| 20260905120544 | 25 | 25 | 0.0 | 0.0 | 0.00 | 0.00 | 0.00 | 87 | 1014.0 |
| 20260905120025 | 24 | 25 | 0.0 | 0.0 | 0.00 | 0.00 | 0.00 | 87 | 1013.9 |
| 20260905115527 | 24 | 25 | 0.0 | 0.0 | 0.00 | 0.00 | 0.00 | 87 | 1013.9 |
| 20260905115017 | 24 | 25 | 0.0 | 0.0 | 0.00 | 0.00 | 0.00 | 87 | 1013.9 |
| 20260905114523 | 24 | 25 | 0.0 | 0.0 | 0.00 | 0.00 | 0.00 | 88 | 1013.8 |
| 20260905114015 | 24 | 25 | 0.0 | 0.0 | 0.00 | 0.00 | 0.00 | 87 | 1013.8 |
| 20260905113546 | 24 | 25 | 0.0 | 0.0 | 0.00 | 0.00 | 0.00 | 87 | 1013.6 |
| 20260905113027 | 24 | 5 | 0.0 | 0.0 | 0.00 | 0.00 | 0.00 | 87 | 1013.5 |
| 20260905112529 | 24 | 5 | 0.0 | 0.0 | 0.00 | 0.00 | 0.00 | 87 | 1013.5 |
| 20260905112021 | 24 | 315 | 0.0 | 0.0 | 0.00 | 0.00 | 0.00 | 87 | 1013.4 |
| 20260905111523 | 24 | 315 | 0.0 | 0.0 | 0.00 | 0.00 | 0.00 | 87 | 1013.4 |
| 20260905111015 | 24 | 315 | 0.0 | 0.0 | 0.00 | 0.00 | 0.00 | 87 | 1013.3 |
| 20260905110547 | 24 | 315 | 0.0 | 0.0 | 0.00 | 0.00 | 0.00 | 86 | 1013.3 |
| 20260905110028 | 24 | 315 | 0.0 | 0.0 | 0.00 | 0.00 | 0.00 | 86 | 1013.2 |
| 20260905105530 | 24 | 315 | 0.0 | 0.0 | 0.00 | 0.00 | 0.00 | 87 | 1013.2 |
| 20260905105026 | 24 | 315 | 0.0 | 0.0 | 0.00 | 0.00 | 0.00 | 87 | 1013.2 |
| 20260905104526 | 24 | 315 | 0.0 | 0.0 | 0.00 | 0.00 | 0.00 | 87 | 1013.2 |
| 20260905104018 | 24 | 315 | 0.0 | 0.0 | 0.00 | 0.00 | 0.00 | 87 | 1013.1 |
| 20260905103530 | 24 | 315 | 0.0 | 0.0 | 0.00 | 0.00 | 0.00 | 87 | 1013.0 |
| 20260905103033 | 24 | 315 | 0.0 | 0.0 | 0.00 | 0.00 | 0.00 | 87 | 1013.0 |
| 20260905102554 | 24 | 315 | 0.0 | 0.0 | 0.00 | 0.00 | 0.00 | 87 | 1013.0 |
| 20260905102026 | 24 | 315 | 0.0 | 0.0 | 0.00 | 0.00 | 0.00 | 87 | 1012.9 |
| 20260905101528 | 24 | 315 | 0.0 | 0.0 | 0.00 | 0.00 | 0.00 | 87 | 1012.9 |
| 20260905101050 | 24 | 315 | 0.0 | 0.0 | 0.00 | 0.00 | 0.00 | 87 | 1012.8 |
| 20260905100522 | 24 | 315 | 0.0 | 0.0 | 0.00 | 0.00 | 0.00 | 88 | 1012.9 |
| 20260905100024 | 24 | 315 | 0.0 | 0.0 | 0.00 | 0.00 | 0.00 | 88 | 1012.9 |
| 20260905095527 | 24 | 315 | 0.0 | 0.0 | 0.00 | 0.00 | 0.00 | 88 | 1012.9 |
| 20260905095043 | 24 | 315 | 0.0 | 0.0 | 0.00 | 0.00 | 0.00 | 88 | 1012.9 |
| 20260905094544 | 24 | 315 | 0.0 | 0.0 | 0.00 | 0.00 | 0.00 | 87 | 1012.9 |
| 20260905094015 | 24 | 315 | 0.0 | 0.0 | 0.00 | 0.00 | 0.00 | 87 | 1012.9 |
| 20260905093527 | 24 | 315 | 0.0 | 0.0 | 0.00 | 0.00 | 0.00 | 87 | 1012.9 |
| 20260905093030 | 24 | 315 | 0.0 | 0.0 | 0.00 | 0.00 | 0.00 | 87 | 1012.9 |
| 20260905092533 | 25 | 315 | 0.0 | 0.0 | 0.00 | 0.00 | 0.00 | 87 | 1012.9 |
| 20260905092046 | 25 | 315 | 0.0 | 0.0 | 0.00 | 0.00 | 0.00 | 87 | 1012.9 |
| 20260905091528 | 25 | 315 | 0.0 | 0.0 | 0.00 | 0.00 | 0.00 | 87 | 1012.9 |
| 20260905091031 | 25 | 315 | 0.0 | 0.0 | 0.00 | 0.00 | 0.00 | 87 | 1012.9 |
| 20260905090523 | 25 | 315 | 0.0 | 0.0 | 0.00 | 0.00 | 0.00 | 87 | 1012.8 |
| 20260905090026 | 25 | 315 | 0.0 | 0.0 | 0.00 | 0.00 | 0.00 | 88 | 1012.8 |
| 20260905085529 | 25 | 315 | 0.0 | 0.0 | 0.00 | 0.00 | 0.00 | 87 | 1012.8 |
| 20260905085026 | 25 | 315 | 0.0 | 0.0 | 0.00 | 0.00 | 0.00 | 87 | 1012.7 |
| 20260905084529 | 25 | 315 | 0.0 | 0.0 | 0.00 | 0.00 | 0.00 | 86 | 1012.8 |
| 20260905084032 | 25 | 315 | 0.0 | 0.0 | 0.00 | 0.00 | 0.00 | 86 | 1012.9 |
| 20260905083525 | 25 | 315 | 0.0 | 0.0 | 0.00 | 0.00 | 0.00 | 87 | 1012.9 |
| 20260905083028 | 25 | 315 | 0.0 | 0.0 | 0.00 | 0.00 | 0.00 | 87 | 1012.8 |
| 20260905082531 | 25 | 315 | 0.0 | 0.0 | 0.00 | 0.00 | 0.00 | 87 | 1012.8 |
| 20260905082024 | 25 | 315 | 0.0 | 0.0 | 0.00 | 0.00 | 0.00 | 87 | 1012.8 |
| 20260905081547 | 25 | 315 | 0.0 | 0.0 | 0.00 | 0.00 | 0.00 | 87 | 1012.7 |
| 20260905081029 | 25 | 315 | 0.0 | 0.0 | 0.00 | 0.00 | 0.00 | 86 | 1012.6 |
| 20260905080521 | 25 | 315 | 0.0 | 0.0 | 0.00 | 0.00 | 0.00 | 86 | 1012.5 |
| 20260905080016 | 25 | 315 | 0.0 | 0.0 | 0.00 | 0.00 | 0.00 | 86 | 1012.5 |
| 20260905075518 | 25 | 315 | 0.0 | 0.0 | 0.00 | 0.00 | 0.00 | 86 | 1012.6 |
| 20260905075019 | 25 | 315 | 0.0 | 0.0 | 0.00 | 0.00 | 0.00 | 85 | 1012.6 |
| 20260905074532 | 25 | 315 | 0.0 | 0.0 | 0.00 | 0.00 | 0.00 | 85 | 1012.6 |
| 20260905074015 | 25 | 315 | 0.0 | 0.0 | 0.00 | 0.00 | 0.00 | 85 | 1012.6 |
| 20260905073517 | 25 | 315 | 0.0 | 0.0 | 0.00 | 0.00 | 0.00 | 85 | 1012.6 |
| 20260905073030 | 25 | 315 | 0.0 | 0.0 | 0.00 | 0.00 | 0.00 | 85 | 1012.6 |
| 20260905072533 | 25 | 315 | 0.0 | 0.0 | 0.00 | 0.00 | 0.00 | 85 | 1012.6 |
| 20260905072034 | 25 | 315 | 0.0 | 0.0 | 0.00 | 0.00 | 0.00 | 85 | 1012.6 |
| 20260905071546 | 25 | 315 | 0.0 | 0.0 | 0.00 | 0.00 | 0.00 | 85 | 1012.6 |
| 20260905071028 | 25 | 315 | 0.0 | 0.0 | 0.00 | 0.00 | 0.00 | 85 | 1012.6 |
| 20260905070527 | 25 | 315 | 0.0 | 0.0 | 0.00 | 0.00 | 0.00 | 85 | 1012.5 |